Theta_e
308 310 310 307 306 308 307 309 305 307 311 325 330 333 333 336 337 337 338 342 342 341 344 346 344 348 348 349 345 343 347 353 357 360 362 361 360 361 360 361 360 365 361 361
303 307 309 306 307 308 308 309 310 310 312 327 335 336 333 332 334 335 336 337 341 344 338 341 342 343 344 344 344 343 342 346 353 356 357 358 360 360 361 362 361 364 362 359
301 307 307 302 307 308 309 311 311 310 318 326 331 331 330 330 330 333 332 333 338 339 341 342 344 345 343 344 345 339 344 346 349 350 352 355 355 357 356 357 360 359 359 359
305 306 296 309 313 315 314 316 318 319 325 329 331 330 331 333 330 326 327 326 327 327 328 335 341 340 340 342 345 344 345 345 346 348 347 348 351 352 353 357 355 357 357 357
299 294 303 308 310 311 311 313 319 321 328 330 330 330 327 331 331 332 330 325 323 323 322 323 324 330 335 336 340 342 339 343 344 346 345 343 335 335 339 347 345 344 342 343
304 297 295 308 312 313 314 308 318 324 324 324 325 320 322 328 329 328 328 324 320 319 320 320 320 323 324 325 328 329 333 338 341 340 338 336 332 337 343 344 341 339 337 334
300 298 301 309 309 314 302 308 317 324 325 326 322 326 329 329 328 329 328 325 323 321 317 317 319 319 317 319 318 324 328 332 338 340 340 340 341 341 340 339 339 334 333 331
301 299 294 312 311 308 313 318 318 323 325 325 326 327 327 327 328 327 326 323 323 321 320 322 321 319 317 316 319 322 325 328 331 332 332 334 338 339 342 340 337 336 335 330
306 306 313 315 315 317 318 319 319 320 324 328 325 324 324 322 324 325 324 323 323 322 320 321 321 322 318 321 323 323 322 323 328 329 332 332 332 334 332 335 333 333 331 329
307 310 311 313 316 317 318 319 321 323 324 327 325 324 324 324 325 324 323 321 320 319 318 318 322 322 321 323 325 324 324 324 323 326 327 328 328 329 329 327 327 328 327 328
308 313 313 313 315 315 316 318 320 324 324 324 326 323 322 323 324 323 324 323 322 321 319 319 320 320 320 320 322 321 320 320 320 319 322 320 312 306 316 305 301 318 318 322
306 313 313 315 316 315 314 315 318 320 322 325 323 322 323 322 323 323 322 321 320 320 319 318 319 318 319 320 320 319 317 316 316 316 318 316 314 308 298 297 295 294 294 302
311 316 312 318 316 315 314 314 316 318 321 322 322 323 322 322 322 318 321 320 319 318 317 317 316 315 317 318 318 317 316 315 313 310 313 314 313 311 305 298 296 294 294 294
315 315 311 314 313 317 316 317 314 318 320 322 324 323 323 321 318 316 316 317 316 316 315 315 315 315 316 316 315 316 315 305 312 312 312 312 312 313 312 310 309 306 295 297
313 314 315 318 317 316 317 316 315 315 317 318 322 323 324 321 318 317 317 316 314 312 313 312 312 313 314 313 313 312 311 309 310 311 311 309 311 310 310 311 311 309 306 297
313 314 314 313 313 313 313 313 313 314 316 317 319 321 323 324 323 322 320 319 318 316 317 314 311 313 314 313 312 310 309 305 306 309 307 308 309 308 308 309 308 308 307 305
310 309 310 310 310 310 311 313 313 314 316 317 319 320 322 321 322 322 322 324 322 319 318 316 314 317 316 314 311 308 307 305 308 306 307 308 308 307 308 307 307 307 305 299
312 312 312 311 311 311 313 314 315 315 315 316 319 320 319 321 321 322 322 323 321 319 319 318 317 316 315 313 311 309 307 306 304 306 306 306 306 307 306 306 306 306 305 301
313 311 311 312 312 312 314 313 315 317 318 319 317 318 320 321 321 323 323 320 319 317 318 319 317 316 314 313 312 309 307 306 306 305 306 304 305 305 305 305 305 306 307 305
313 312 313 313 314 313 313 315 315 315 317 317 318 317 317 319 321 321 321 320 320 318 322 317 317 315 315 315 313 309 307 306 305 305 306 305 304 305 306 300 305 305 305 306
314 313 313 314 314 314 314 315 315 313 315 315 315 315 316 318 319 320 319 318 320 321 320 319 318 317 315 315 312 309 308 306 305 305 305 304 305 305 305 304 304 305 305 305
315 314 314 314 313 314 314 316 315 315 314 314 314 314 314 315 316 316 319 317 317 312 317 318 317 317 315 316 312 312 308 305 306 306 306 306 305 305 305 305 305 305 305 306
315 317 316 315 314 315 315 315 314 312 311 311 311 312 311 311 311 309 309 315 316 313 316 318 316 313 312 315 314 313 312 309 305 303 304 307 307 306 306 306 306 305 305 306
317 318 317 317 317 314 312 312 311 312 313 313 313 313 312 309 310 313 313 310 308 308 312 314 314 310 309 315 314 314 313 311 307 305 305 300 307 307 307 307 306 306 306 304
319 319 317 315 312 310 310 310 309 310 311 311 311 312 312 313 310 310 310 310 307 308 311 309 310 309 314 314 312 312 312 312 311 307 303 305 305 306 306 308 307 307 307 307
317 311 310 312 309 308 309 309 308 309 309 310 311 313 311 310 310 309 310 308 309 307 309 309 311 315 315 315 313 312 311 311 311 306 304 305 306 307 307 307 308 308 308 307
309 305 308 309 308 309 310 309 308 307 307 308 308 310 312 311 310 307 305 308 308 308 311 310 310 311 315 315 315 314 312 312 307 306 303 302 304 306 309 309 309 309 309 309
Wind_Speed
7 18 22 19 21 17 18 19 17 4 12 21 20 19 14 11 11 11 11 14 13 14 11 11 9 10 9 10 6 5 4 2 6 7 7 7 6 8 10 10 9 6 8 8
13 10 17 11 20 15 18 20 15 6 15 3 20 21 18 14 11 11 8 11 14 16 10 10 12 12 10 9 7 5 2 4 5 4 3 4 5 7 8 8 9 9 8 9
9 10 10 6 1 9 7 9 7 8 4 8 20 12 14 13 8 7 9 9 9 8 7 7 11 11 10 8 8 5 7 4 4 2 4 5 4 6 7 7 4 5 5 6
1 12 17 9 17 11 7 8 7 3 7 9 17 15 12 11 12 10 9 9 9 7 8 8 8 10 9 6 7 8 7 5 4 5 2 2 4 4 4 4 3 3 3 6
5 2 9 15 13 11 14 10 5 5 14 11 12 15 11 9 8 11 12 10 8 9 9 8 8 5 7 7 5 5 5 5 5 5 5 5 5 5 5 2 6 7 8 7
4 11 3 8 12 6 9 9 20 11 7 5 3 5 10 10 12 13 14 12 11 10 9 9 7 7 9 7 7 5 4 3 5 7 6 6 4 1 1 5 6 5 7 8
1 4 5 2 2 18 13 7 10 5 4 8 2 10 18 15 12 12 13 14 14 12 11 8 8 9 10 8 8 6 6 5 3 4 6 5 7 6 6 4 4 5 5 7
4 9 5 9 1 3 5 4 8 8 9 14 12 8 12 13 14 15 16 15 14 13 12 11 9 7 8 8 4 4 6 3 4 3 3 5 4 4 5 6 7 4 5 7
9 5 7 8 10 8 7 7 6 6 5 11 6 11 12 11 14 14 14 12 11 11 12 10 9 9 7 4 6 6 5 4 4 3 5 5 4 5 5 3 4 5 4 4
1 8 7 5 7 8 8 9 8 5 3 6 11 14 12 10 12 13 13 14 11 10 11 9 7 8 6 3 5 5 5 6 5 3 3 4 5 3 2 2 2 3 3 2
5 8 5 4 6 5 6 7 8 7 4 3 12 11 11 9 11 10 10 10 9 11 10 9 8 7 7 4 4 5 5 5 6 6 4 7 10 9 7 9 8 7 6 4
2 6 5 9 4 0 2 4 5 5 4 6 6 10 8 7 8 10 10 8 7 8 9 8 8 6 5 5 4 2 3 4 2 4 7 7 6 7 16 11 10 12 11 11
3 3 2 7 2 1 1 2 3 3 3 8 4 9 9 4 6 6 11 10 9 9 8 6 6 5 4 4 3 1 5 3 3 4 4 4 7 7 7 4 5 7 9 10
4 4 5 6 6 2 0 0 3 1 3 4 12 9 11 10 9 9 8 6 6 6 6 7 3 4 5 5 3 1 2 4 5 3 3 3 3 3 4 7 7 7 5 1
7 7 5 7 2 5 3 4 5 6 6 6 7 8 11 13 13 12 12 11 8 5 4 3 3 2 3 2 3 4 3 5 5 3 1 2 3 4 3 3 2 7 7 4
8 7 6 6 6 3 5 6 7 8 7 7 8 9 12 13 14 14 14 14 13 10 10 9 10 11 8 6 6 6 5 6 4 3 3 5 3 4 3 3 4 3 4 4
8 8 7 6 6 6 5 4 4 5 7 8 8 9 9 11 10 13 14 14 12 10 11 11 10 9 10 9 9 8 6 6 5 5 4 3 3 4 3 4 4 3 7 4
4 2 4 4 4 5 6 4 4 4 4 5 8 8 9 11 10 11 12 12 11 9 10 10 11 11 11 11 10 8 6 6 7 7 5 3 4 3 4 4 3 5 7 5
5 5 4 4 4 4 3 5 2 1 1 2 5 7 7 10 10 7 10 13 13 12 12 12 13 13 13 13 11 8 8 8 7 7 5 4 4 5 5 4 4 3 3 6
7 6 6 7 4 4 4 2 2 3 1 3 3 5 6 8 7 5 6 9 12 9 9 14 17 15 14 15 15 10 9 10 9 8 7 7 8 6 5 1 2 5 4 3
10 9 8 7 7 5 2 1 2 3 2 4 5 4 3 5 5 6 8 8 11 11 11 8 16 12 11 12 14 12 11 11 10 10 10 9 7 7 7 8 7 5 5 4
12 10 9 9 7 7 5 3 3 2 5 5 5 6 7 8 8 8 10 9 9 2 5 7 7 15 10 17 13 13 9 7 8 10 10 10 9 8 7 7 6 6 5 5
12 11 10 10 8 7 6 4 4 4 5 5 5 5 6 7 8 8 8 5 6 1 5 6 9 9 13 10 11 13 12 12 7 6 5 9 10 10 9 8 7 6 6 5
12 11 10 6 6 5 7 5 3 3 2 3 2 4 5 6 5 3 6 7 5 9 9 9 5 11 12 11 10 11 11 12 10 3 5 12 7 7 8 8 7 5 6 4
12 9 8 8 8 7 5 6 5 5 6 2 2 4 5 2 3 5 4 6 5 7 10 9 11 17 12 11 12 11 10 11 11 11 8 5 6 5 5 3 5 7 7 7
10 8 7 8 6 6 7 6 8 3 3 1 1 1 4 3 4 4 3 5 9 9 11 10 11 10 12 12 11 12 9 11 11 10 10 8 5 5 2 6 4 3 4 7
9 6 4 7 5 5 3 3 4 7 6 4 3 3 1 2 3 4 1 7 10 11 12 10 10 8 10 12 13 11 10 11 11 10 9 8 7 7 7 4 2 5 11 9
Wind_Direction
117 259 273 190 217 225 231 253 230 6 27 153 157 142 151 150 149 170 164 152 155 154 143 150 134 150 145 134 95 36 297 244 235 219 217 218 243 254 211 222 231 241 225 224
152 239 280 196 198 209 217 244 254 111 240 97 115 119 138 151 166 164 136 163 175 163 165 168 164 175 143 128 125 153 206 289 231 213 214 212 211 236 248 242 224 222 230 232
255 180 215 210 234 259 239 215 317 350 11 8 96 111 110 110 110 143 114 121 121 151 162 187 177 171 159 168 176 170 211 188 210 235 221 226 242 230 232 225 249 263 261 268
8 315 228 105 337 345 15 18 359 324 54 143 98 97 97 118 127 116 111 103 95 99 88 91 111 122 120 140 178 187 193 182 191 173 171 350 252 256 243 218 209 223 214 127
257 287 285 138 93 345 333 57 27 4 86 100 106 107 103 119 143 137 123 112 100 95 93 79 71 88 115 116 151 155 151 179 183 192 141 108 71 18 324 281 77 90 80 85
245 277 239 87 356 335 294 174 352 16 100 100 143 226 128 124 118 123 124 121 115 107 104 99 81 69 86 82 89 84 120 172 150 136 149 134 109 183 28 44 109 112 113 99
355 218 95 284 303 310 256 42 348 46 325 115 163 32 117 134 129 121 117 115 115 110 103 106 98 100 85 80 65 25 41 21 101 113 107 119 150 157 126 118 98 116 82 82
218 267 75 316 185 331 4 12 6 10 50 89 99 122 134 134 131 128 125 131 124 118 113 110 107 103 104 102 105 42 31 66 105 117 127 114 123 116 115 133 133 129 158 140
346 54 104 66 77 64 16 37 21 341 57 101 127 128 137 139 140 131 126 120 114 116 109 108 117 117 102 126 148 158 121 29 42 76 97 114 121 123 133 159 159 180 191 147
321 137 107 97 87 66 35 34 18 12 53 111 122 141 139 140 141 144 150 144 133 125 119 112 112 102 111 130 137 153 147 157 164 163 129 156 173 165 189 185 228 182 180 236
190 148 137 146 80 34 47 33 41 39 61 123 132 151 154 157 148 149 136 130 137 129 121 115 110 119 123 125 154 148 160 155 162 150 200 88 57 17 73 48 18 319 32 9
41 81 172 99 113 80 39 45 37 52 79 96 125 147 158 158 146 148 141 126 121 118 111 116 120 110 106 119 125 157 160 178 157 155 177 141 139 87 51 59 50 55 45 32
17 131 215 99 149 141 209 35 75 79 89 118 129 159 138 140 139 119 149 144 130 124 107 109 117 120 123 104 116 118 302 59 154 279 200 184 162 163 148 117 75 59 59 56
218 184 208 194 207 156 186 153 175 13 132 161 150 163 147 157 143 169 155 126 105 97 131 120 114 145 159 141 92 149 229 359 269 210 202 201 196 213 185 177 177 134 183 179
205 216 280 126 189 195 245 258 230 227 185 163 156 171 168 174 177 182 171 164 142 133 157 88 94 188 200 154 180 194 205 217 252 223 191 332 182 196 203 156 167 137 142 210
201 201 216 210 240 225 246 247 249 264 230 200 178 193 191 189 176 180 181 183 183 195 188 182 182 185 183 199 205 219 184 21 317 220 161 217 188 207 168 162 174 165 115 56
190 192 205 224 223 224 233 272 295 293 300 282 211 202 218 204 177 181 192 190 196 188 181 186 185 181 184 190 192 224 193 179 251 271 229 204 221 233 181 195 175 150 93 59
214 161 211 243 240 190 196 202 246 247 260 284 277 238 213 222 208 194 190 190 184 197 193 185 187 185 183 196 205 215 212 183 197 227 191 186 220 224 213 210 172 162 129 129
180 179 196 196 192 204 194 187 215 344 236 252 261 245 232 246 230 220 194 186 189 199 198 188 177 196 189 196 205 218 205 199 194 218 191 135 193 226 201 198 176 176 173 156
173 172 174 175 180 213 184 201 241 245 251 295 192 220 227 234 226 225 225 224 222 211 206 180 174 201 195 193 200 210 214 215 199 202 205 196 213 206 173 17 241 179 186 180
181 178 181 178 184 172 213 152 247 255 291 324 307 282 244 237 258 242 241 243 250 240 245 189 182 201 208 196 189 224 212 203 212 206 193 205 211 209 187 190 198 194 192 201
191 186 184 184 192 194 197 181 256 293 289 299 297 299 299 291 279 249 234 243 270 200 261 229 203 210 206 196 195 217 215 244 229 222 212 194 222 198 210 193 204 198 194 200
196 193 190 197 205 178 164 238 202 254 277 281 289 289 287 299 310 303 291 272 269 341 252 248 279 234 197 217 222 215 213 225 231 229 216 206 216 200 202 199 208 200 197 209
195 195 193 183 170 169 179 194 243 157 197 234 262 314 310 300 304 311 321 345 338 359 311 292 213 181 195 221 226 224 216 218 207 208 225 242 224 221 210 196 194 229 215 194
188 163 149 161 170 188 183 181 193 178 199 156 242 214 229 159 335 4 335 315 294 274 280 265 219 189 210 222 222 215 207 216 204 199 226 249 209 223 251 265 225 216 219 225
140 140 151 192 214 165 192 170 237 123 121 199 155 307 72 79 208 233 348 24 319 326 288 263 256 223 225 220 212 202 202 212 199 205 204 190 178 212 274 262 286 284 261 260
141 102 191 209 194 194 221 193 236 164 193 191 174 146 164 199 118 282 250 350 350 342 308 292 266 229 226 218 209 206 196 204 194 197 186 183 185 210 198 219 353 271 266 256